Showing default

IRIDIUM 173, 43925

Orbit data source: Space-Track

IRIDIUM 173, 43925 is a payload satellite owned by Iridium (US) in LEO that was launched on Fri, 11 Jan 2019 UTC via an FALCON 9 launch vehicle from the Air Force Western Test Range (AFWTR). Payload-class satellites include a variety of spacecraft equipped with specific instruments for various scientific and technological missions. These include communications satellites like Starlink; space stations such as the ISS; scientific satellites like the Hubble; Earth observation satellites from companies like Planet Labs, Umbra, and HawkEye 360; GPS; miniature CubeSats for education and research; and military/defense satellites.

Loading next visibility...
Identifier
43925, 2019-002D
Orbit
LEO
Country
Flag of USUS
Related business
Manufacturer
NGIS SSG Gilbert
Mission
Operational Commercial Communications
Bus & Motor
ELITEBUS, Unknown motor
Mass
860 kg wet, 700 kg dry
Launch date (UTC)
2019-01-11 (7 years ago)
Launch vehicle
FALCON 9
Launch site
Air Force Western Test Range (AFWTR)
Object type
Payload
Rocket body
Debris
Shape & HBR
Trap Box + 2 Pan, 4.8 m
Radar Cross Section
10.154 m², Large (>1 m²)

Expand to show TLE details & history
Last TLE update: 10 hours ago

TLE from 10 hours ago
0 IRIDIUM 173
1 43925U 19002D   25302.95058942  .00000330  00000-0  11065-3 0  9991
2 43925  86.3928  89.8192 0002156  87.3914 272.7528 14.34217821355957
Epoch: 2025-10-29T22:48Z
TLE epoch observation values (Epoch: 2025-10-29T22:48:50.925Z)
Latitude
-0.00011°
Longitude
69.09063°
Altitude
780.644 km
Speed
7.464 km/s
True Right ascension
05h 59m 16s
True Declination
0° 00' 00"
Sunlit
Object was in full shadow at epoch
Visualization orbit readout
Latitude
Unknown
Longitude
Unknown
Altitude
Unknown
Speed
Unknown
Apparent Right ascension
Unknown
Apparent Declination
Unknown
Sunlit
N/A
Visualization observer readout
Local Sidereal Time
04:50:30
Azimuth
Unknown
Elevation
Unknown
Doppler factor
Unknown
Orbital elements
Apogee altitude
776.174 km
Perigee altitude
773.089 km
Semi-major axis
7,152.768 km
Eccentricity
0.00022
Inclination
86.3928°
RAAN
89.8192°
Arg. of periapsis
87.3914°
True anomaly
272.72812°
Mean anomaly
272.7528°
Eccentric anomaly
272.74046°
Mean motion
3.58783 °/min
Orbital period
100.34 mins
BSTAR
0.00011065
Loading maneuver chart data...
Computing Atmospheric mass density...
Loading historical data...
Loading historical data...
Loading historical data...
Loading historical data...
Loading historical data...
Loading historical data...
Loading historical data...

Documentation

Showing up to 5 results
|